TimeCST,TemperatureF,Dew PointF,Humidity,Sea Level PressureIn,VisibilityMPH,Wind Direction,Wind SpeedMPH,Gust SpeedMPH,PrecipitationIn,Events,Conditions,WindDirDegrees,DateUTC
12:53 AM,37.9,35.1,89,30.10,10.0,Calm,Calm,-,N/A,,Clear,0,2013-02-21 06:53:00
1:53 AM,36.0,34.0,93,30.09,10.0,Calm,Calm,-,N/A,,Clear,0,2013-02-21 07:53:00
2:53 AM,36.0,34.0,93,30.09,10.0,Calm,Calm,-,N/A,,Clear,0,2013-02-21 08:53:00
3:53 AM,35.1,33.1,92,30.08,10.0,Calm,Calm,-,N/A,,Clear,0,2013-02-21 09:53:00
4:53 AM,34.0,32.0,92,30.10,10.0,Calm,Calm,-,N/A,,Clear,0,2013-02-21 10:53:00
5:53 AM,36.0,33.1,89,30.12,10.0,Calm,Calm,-,N/A,,Clear,0,2013-02-21 11:53:00
6:53 AM,41.0,32.0,70,30.13,10.0,East,6.9,-,N/A,,Clear,80,2013-02-21 12:53:00
8:53 AM,52.0,28.9,41,30.14,10.0,ENE,6.9,-,N/A,,Clear,70,2013-02-21 14:53:00
9:53 AM,55.9,30.0,37,30.14,10.0,East,5.8,-,N/A,,Clear,100,2013-02-21 15:53:00
10:53 AM,60.1,30.9,33,30.12,10.0,East,5.8,-,N/A,,Clear,90,2013-02-21 16:53:00
11:53 AM,64.9,34.0,32,30.09,10.0,East,4.6,-,N/A,,Clear,80,2013-02-21 17:53:00
12:53 PM,69.1,34.0,27,30.04,10.0,East,3.5,-,N/A,,Partly Cloudy,90,2013-02-21 18:53:00
1:53 PM,71.1,37.0,29,30.01,10.0,ESE,6.9,-,N/A,,Clear,110,2013-02-21 19:53:00
2:53 PM,71.1,41.0,34,29.98,10.0,ESE,8.1,-,N/A,,Clear,110,2013-02-21 20:53:00
3:53 PM,71.1,46.0,41,29.98,10.0,SE,4.6,-,N/A,,Clear,130,2013-02-21 21:53:00
4:53 PM,69.1,48.0,47,29.97,10.0,SSE,5.8,-,N/A,,Clear,160,2013-02-21 22:53:00
5:53 PM,66.0,48.9,54,29.98,10.0,SSE,4.6,-,N/A,,Clear,150,2013-02-21 23:53:00
6:53 PM,64.9,50.0,58,29.99,10.0,Calm,Calm,-,N/A,,Clear,0,2013-02-22 00:53:00
7:53 PM,64.0,51.1,63,29.99,10.0,SSE,4.6,-,N/A,,Clear,150,2013-02-22 01:53:00
8:53 PM,63.0,52.0,67,29.99,10.0,SSE,3.5,-,N/A,,Clear,150,2013-02-22 02:53:00
9:53 PM,62.1,54.0,75,29.99,10.0,Calm,Calm,-,N/A,,Clear,0,2013-02-22 03:53:00
10:53 PM,60.1,55.9,86,29.99,10.0,South,3.5,-,N/A,,Mostly Cloudy,180,2013-02-22 04:53:00
11:02 PM,62.6,57.2,82,29.99,10.0,South,8.1,17.3,N/A,,Mostly Cloudy,180,2013-02-22 05:02:00
11:53 PM,63.0,60.1,90,29.97,8.0,South,8.1,-,N/A,,Overcast,170,2013-02-22 05:53:00